Location: Terre Du Lac
(37.9120°N, 90.6250°W)
Time: 03:27:43
(UTC-05:00)

Hubble Space Telescope - Visible Passes

Search period start: 05 August 2015 00:00
Search period end: 15 August 2015 00:00
Orbit: 541 x 545 km, 28.5° (Epoch: 03 August)

Date Brightness Start Highest point End Pass type
(mag) Time Alt. Az. Time Alt. Az. Time Alt. Az.
05 Aug 2.4 21:06:01 10° SW 21:08:57 19° S 21:10:22 16° SE visible
06 Aug 2.3 20:56:54 10° SW 20:59:58 20° S 21:02:03 14° SE visible
07 Aug 2.3 20:47:50 10° SW 20:51:00 21° S 20:53:40 12° SE visible
07 Aug 3.3 22:28:44 10° SW 22:29:06 12° SW 22:29:06 12° SW visible
08 Aug 2.3 20:38:48 10° SW 20:42:01 22° S 20:45:12 10° SE visible
08 Aug 3.2 22:19:57 10° SW 22:20:38 13° SW 22:20:38 13° SW visible
09 Aug 2.3 20:29:49 10° SW 20:33:03 22° S 20:36:17 10° SE visible
09 Aug 3.1 22:11:15 10° SW 22:12:08 13° SW 22:12:08 13° SW visible
10 Aug 3.2 22:02:40 10° SW 22:03:36 12° SW 22:03:36 12° SW visible
11 Aug 3.2 21:54:25 10° SW 21:55:05 11° SSW 21:55:05 11° SSW visible
